FW6835 Weather Reports


time (UTC)temp
F
wind
direction
speed
knots
gust
knots
rain 1hr
in
rain 24hr
in
rain mn
in
humidity
%
barometer
mb
20260507210528 43 144 0.9 5.2 0.00 0.49 0.49 99 1017.5
20260507210031 43 99 0.0 3.5 0.00 0.49 0.49 99 1017.4
20260507205527 43 86 0.0 3.5 0.00 0.49 0.49 99 1017.3
20260507205026 43 79 0.9 5.2 0.00 0.49 0.49 99 1017.4
20260507204526 43 103 0.0 2.6 0.00 0.49 0.49 99 1017.3
20260507204027 43 136 0.0 2.6 0.00 0.49 0.49 99 1017.3
20260507203525 43 80 0.0 4.3 0.00 0.49 0.49 99 1017.3
20260507203026 43 52 0.0 4.3 0.00 0.49 0.49 99 1017.2
20260507202523 43 74 0.9 3.5 0.00 0.49 0.49 99 1017.1
20260507202026 43 79 1.7 3.5 0.00 0.49 0.49 99 1017.1
20260507201522 43 51 0.0 2.6 0.00 0.49 0.49 99 1017.1
20260507201022 43 95 0.9 5.2 0.00 0.49 0.49 99 1016.9
20260507200521 43 92 0.9 5.2 0.00 0.49 0.49 99 1016.9
20260507200022 43 113 0.9 7.0 0.00 0.49 0.49 99 1016.9
20260507195522 43 80 0.9 2.6 0.00 0.49 0.49 99 1016.8
20260507195020 43 81 0.0 6.1 0.00 0.49 0.49 99 1016.6
20260507194531 43 71 2.6 7.8 0.00 0.49 0.49 99 1016.6
20260507194018 43 315 0.9 7.8 0.00 0.49 0.49 99 1016.5
20260507193519 43 117 0.0 5.2 0.01 0.49 0.49 99 1016.5
20260507193018 43 128 0.9 5.2 0.01 0.49 0.49 99 1016.5
20260507192517 44 82 0.9 5.2 0.01 0.49 0.49 99 1016.3
20260507192015 44 59 0.9 4.3 0.01 0.49 0.49 99 1016.3
20260507191514 44 98 1.7 5.2 0.01 0.49 0.49 99 1016.2
20260507191018 44 110 0.9 5.2 0.01 0.49 0.49 99 1016.1
20260507190513 44 86 0.9 5.2 0.01 0.49 0.49 99 1016.1
20260507190018 44 49 1.7 4.3 0.01 0.49 0.49 99 1016.0
20260507185514 44 87 0.0 4.3 0.01 0.49 0.49 99 1015.9
20260507185013 44 67 0.0 5.2 0.01 0.49 0.49 99 1015.8
20260507184510 44 119 0.9 6.1 0.01 0.49 0.49 99 1015.7
20260507184011 44 110 0.9 6.1 0.01 0.49 0.49 99 1015.7
20260507183509 44 62 0.9 4.3 0.00 0.48 0.48 98 1015.6
20260507183013 44 73 0.9 5.2 0.00 0.48 0.48 98 1015.5
20260507182508 45 91 0.9 5.2 0.00 0.48 0.48 99 1015.5
20260507182009 45 109 1.7 5.2 0.00 0.48 0.48 99 1015.5
20260507181506 45 134 0.9 2.6 0.00 0.48 0.48 99 1015.3
20260507181006 45 137 0.0 2.6 0.01 0.48 0.48 99 1015.2
20260507180505 45 163 0.9 7.0 0.01 0.48 0.48 98 1015.3
20260507180005 45 123 0.9 7.0 0.01 0.48 0.48 98 1015.2
20260507175504 45 243 0.0 3.5 0.01 0.48 0.48 98 1015.2
20260507175004 45 74 0.0 4.3 0.01 0.48 0.48 98 1015.3
20260507174509 45 76 0.0 4.3 0.01 0.48 0.48 98 1015.2
20260507174001 45 113 0.9 2.6 0.02 0.48 0.48 99 1015.3
20260507173503 45 82 0.0 3.5 0.02 0.48 0.48 98 1015.2
20260507173118 45 82 0.9 3.5 0.02 0.48 0.48 98 1015.1
20260507172559 45 120 0.0 5.2 0.02 0.48 0.48 98 1015.0
20260507172058 45 159 0.0 2.6 0.02 0.48 0.48 98 1015.0
20260507171557 45 151 0.0 3.5 0.02 0.48 0.48 98 1014.8
20260507171057 45 77 0.9 8.7 0.01 0.47 0.47 98 1014.7
20260507170556 45 98 0.9 8.7 0.01 0.47 0.47 98 1014.7
20260507170058 45 160 0.0 4.3 0.01 0.47 0.47 98 1014.7
20260507165555 46 91 0.0 4.3 0.01 0.47 0.47 98 1014.7
20260507165055 46 90 0.9 5.2 0.01 0.47 0.47 98 1014.6
20260507164628 46 94 0.0 3.5 0.01 0.47 0.47 98 1014.6
20260507164054 46 11 0.9 3.5 0.00 0.46 0.46 98 1014.6
20260507163552 46 90 0.9 3.5 0.00 0.46 0.46 98 1014.5
20260507163055 46 71 0.0 3.5 0.00 0.46 0.46 98 1014.4
20260507162551 46 75 0.0 2.6 0.00 0.46 0.46 98 1014.5
20260507162052 46 63 0.0 5.2 0.00 0.46 0.46 98 1014.5
20260507161556 46 88 0.9 4.3 0.00 0.46 0.46 98 1014.5
20260507161051 46 71 0.0 7.0 0.00 0.46 0.46 98 1014.3
20260507160548 47 52 0.9 7.0 0.00 0.46 0.46 98 1014.3
20260507160048 47 70 0.9 4.3 0.00 0.46 0.46 98 1014.3
20260507155547 47 94 0.9 6.1 0.00 0.46 0.46 98 1014.3
20260507155048 47 5 0.9 6.1 0.00 0.46 0.46 98 1014.5
20260507154548 47 95 1.7 5.2 0.00 0.46 0.46 98 1014.4
20260507154046 47 71 0.0 5.2 0.00 0.46 0.46 98 1014.3
20260507153549 47 101 0.0 4.3 0.01 0.46 0.46 98 1014.3
20260507153046 47 52 0.0 4.3 0.01 0.46 0.46 98 1014.2
20260507152547 47 42 0.9 3.5 0.01 0.46 0.46 98 1014.0
20260507152044 47 71 0.0 3.5 0.02 0.46 0.46 98 1014.1
20260507151545 47 44 0.9 5.2 0.02 0.46 0.46 98 1013.9
20260507151047 47 90 0.9 5.2 0.02 0.46 0.46 98 1013.9
20260507150541 47 81 0.9 3.5 0.02 0.46 0.46 98 1013.8
20260507150045 47 42 0.9 3.5 0.02 0.46 0.46 98 1013.7
20260507145541 47 55 0.0 3.5 0.02 0.46 0.46 98 1013.7
20260507145041 47 57 0.9 3.5 0.02 0.46 0.46 98 1013.6
20260507144540 47 85 0.9 4.3 0.02 0.46 0.46 98 1013.6
20260507144039 47 24 0.9 4.3 0.02 0.46 0.46 98 1013.6
20260507143539 47 325 0.0 3.5 0.02 0.46 0.46 98 1013.4
20260507143041 47 349 0.9 4.3 0.02 0.46 0.46 98 1013.5
20260507142537 47 84 0.9 4.3 0.02 0.46 0.46 98 1013.5
20260507142037 47 64 0.9 2.6 0.01 0.45 0.45 98 1013.4
20260507141538 47 115 0.0 3.5 0.01 0.45 0.45 98 1013.5
20260507141040 47 86 0.9 3.5 0.01 0.45 0.45 98 1013.5
20260507140536 47 88 0.9 6.1 0.01 0.45 0.45 98 1013.4
20260507140041 47 103 0.9 6.1 0.00 0.44 0.44 98 1013.2
20260507135535 48 91 0.0 4.3 0.01 0.44 0.44 98 1013.4
20260507135035 48 5 0.9 4.3 0.01 0.44 0.44 98 1013.2
20260507134535 48 82 0.9 5.2 0.01 0.44 0.44 98 1013.2
20260507134034 48 53 1.7 5.2 0.01 0.44 0.44 98 1013.1
20260507133535 49 64 0.0 2.6 0.02 0.44 0.44 98 1013.0
20260507133035 48 64 0.0 3.5 0.02 0.44 0.44 98 1013.1
20260507132534 48 61 0.0 4.3 0.02 0.44 0.44 98 1013.1
20260507132033 48 79 1.7 4.3 0.02 0.44 0.44 98 1013.0
20260507131538 48 45 0.0 2.6 0.03 0.44 0.44 98 1013.1
20260507131033 48 76 0.9 4.3 0.03 0.44 0.44 98 1013.1
20260507130536 48 69 0.9 4.3 0.03 0.44 0.44 98 1013.1
20260507130038 48 34 0.9 3.5 0.03 0.44 0.44 98 1012.9
20260507125534 48 82 0.0 0.0 0.04 0.43 0.43 99 1013.0
20260507125030 48 342 0.0 2.6 0.04 0.43 0.43 98 1012.9
20260507124538 48 53 0.0 2.6 0.04 0.43 0.43 98 1012.8
20260507124030 48 85 0.0 2.6 0.04 0.43 0.43 98 1012.8
20260507123529 48 301 0.0 3.5 0.03 0.43 0.43 99 1012.7
20260507123029 48 296 0.9 3.5 0.03 0.43 0.43 98 1012.6
20260507122530 48 346 0.0 2.6 0.03 0.43 0.43 98 1012.6
20260507122026 48 42 0.0 4.3 0.02 0.42 0.42 98 1012.5
20260507121527 48 58 1.7 4.3 0.02 0.41 0.41 98 1012.5
20260507121026 48 67 1.7 3.5 0.02 0.41 0.41 99 1012.5
20260507120526 48 64 0.0 2.6 0.02 0.41 0.41 98 1012.4
20260507120026 48 67 0.9 2.6 0.01 0.40 0.40 98 1012.5
20260507115626 48 61 0.9 2.6 0.00 0.39 0.39 98 1012.4
20260507115024 48 66 0.9 4.3 0.00 0.39 0.39 98 1012.3
20260507114537 48 90 1.7 6.1 0.00 0.39 0.39 98 1012.2
20260507114024 48 59 0.9 6.1 0.00 0.39 0.39 98 1012.2
20260507113524 48 72 0.0 3.5 0.00 0.39 0.39 98 1012.3
20260507113039 49 78 0.0 2.6 0.00 0.39 0.39 99 1012.2
20260507112521 48 273 0.0 3.5 0.00 0.39 0.39 98 1012.1
20260507112021 48 61 0.9 3.5 0.00 0.39 0.39 98 1012.0
20260507111523 48 65 0.9 2.6 0.00 0.39 0.39 98 1012.0
20260507111019 48 79 0.9 3.5 0.00 0.39 0.39 98 1012.0
20260507110519 48 55 0.9 5.2 0.00 0.39 0.39 98 1012.0
20260507110019 49 5 0.9 5.2 0.00 0.39 0.39 98 1011.9
20260507105518 49 84 0.9 3.5 0.00 0.39 0.39 98 1011.9
20260507105018 48 52 0.9 3.5 0.00 0.39 0.39 98 1011.8
20260507104518 48 74 0.9 2.6 0.00 0.39 0.39 98 1011.7
20260507104017 49 90 0.9 7.0 0.00 0.39 0.39 98 1011.7
20260507103519 49 68 1.7 7.0 0.00 0.39 0.39 98 1011.7
20260507103020 49 343 0.0 4.3 0.00 0.39 0.39 98 1011.7
20260507102516 50 64 0.9 7.8 0.00 0.39 0.39 99 1011.7
20260507102015 50 36 1.7 7.8 0.01 0.39 0.39 99 1011.5
20260507101517 50 74 0.0 2.6 0.01 0.39 0.39 99 1011.5
20260507101018 50 60 0.0 2.6 0.01 0.39 0.39 99 1011.6
20260507100514 49 78 0.9 2.6 0.01 0.39 0.39 99 1011.6
20260507100014 49 81 0.0 2.6 0.01 0.39 0.39 99 1011.6
20260507095514 49 78 0.0 3.5 0.01 0.39 0.39 99 1011.5
20260507095014 49 73 0.0 3.5 0.01 0.39 0.39 99 1011.4
20260507094511 49 63 0.0 2.6 0.01 0.39 0.39 98 1011.4
20260507094011 48 57 0.0 2.6 0.01 0.39 0.39 98 1011.5
20260507093510 48 267 0.0 1.7 0.01 0.39 0.39 99 1011.3
20260507093010 48 267 0.0 1.7 0.01 0.39 0.39 99 1011.3
20260507092513 48 266 0.0 2.6 0.01 0.39 0.39 98 1011.2
20260507092010 49 67 0.0 2.6 0.00 0.39 0.39 98 1011.1
20260507091508 49 61 0.0 3.5 0.00 0.39 0.39 98 1011.1
20260507091007 49 29 0.9 5.2 0.00 0.39 0.39 98 1011.0
20260507090511 49 10 1.7 5.2 0.00 0.39 0.39 98 1010.9
20260507090006 49 79 0.0 2.6 0.00 0.39 0.39 99 1010.9
20260507085508 49 50 0.0 2.6 0.00 0.39 0.39 99 1010.8
20260507085006 49 74 0.9 3.5 0.00 0.39 0.39 99 1010.8
20260507084507 49 57 0.0 3.5 0.00 0.39 0.39 99 1010.7
20260507084004 49 63 0.0 0.0 0.00 0.39 0.39 99 1010.6
20260507083504 48 64 0.0 1.7 0.01 0.39 0.39 98 1010.6
20260507083004 48 65 0.0 3.5 0.01 0.39 0.39 99 1010.4
20260507082505 48 75 0.9 3.5 0.02 0.39 0.39 98 1010.5
20260507082002 49 84 0.0 2.6 0.02 0.39 0.39 98 1010.5
20260507081506 49 104 0.0 3.5 0.02 0.39 0.39 98 1010.4
20260507081001 49 59 0.9 3.5 0.03 0.39 0.39 99 1010.3
20260507080501 49 73 0.0 0.0 0.03 0.39 0.39 99 1010.3
20260507080001 49 54 0.0 2.6 0.04 0.39 0.39 99 1010.2
20260507075501 49 55 0.0 3.5 0.04 0.39 0.39 99 1010.3
20260507075100 49 53 0.0 3.5 0.05 0.39 0.39 99 1010.3
20260507074604 49 76 0.0 1.7 0.05 0.39 0.39 99 1010.1
20260507074101 48 62 0.9 1.7 0.05 0.39 0.39 99 1010.1
20260507073600 48 333 0.0 0.9 0.04 0.38 0.38 99 1010.1
20260507073102 48 332 0.0 2.6 0.05 0.38 0.38 99 1010.1
20260507072557 48 278 0.0 2.6 0.04 0.37 0.37 99 1010.0
20260507072056 48 52 0.0 0.9 0.03 0.36 0.36 99 1009.8
20260507071556 48 52 0.0 3.5 0.03 0.36 0.36 98 1009.8
20260507071056 48 51 0.0 3.5 0.02 0.35 0.35 98 1009.8
20260507070555 48 76 0.9 2.6 0.02 0.35 0.35 98 1009.9
20260507070057 48 90 0.9 3.5 0.02 0.35 0.35 98 1009.8
20260507065556 48 92 0.9 3.5 0.02 0.35 0.35 98 1009.7
20260507065053 48 71 0.0 3.5 0.01 0.34 0.34 98 1009.7
20260507064555 49 81 1.7 3.5 0.01 0.34 0.34 98 1009.7
20260507064053 49 76 0.0 3.5 0.02 0.34 0.34 99 1009.7
20260507063553 49 68 0.0 3.5 0.02 0.34 0.34 98 1009.6
20260507063053 49 268 0.0 2.6 0.01 0.33 0.33 98 1009.6
20260507062552 49 268 0.9 2.6 0.01 0.33 0.33 98 1009.6
20260507062051 49 268 0.0 3.5 0.01 0.33 0.33 98 1009.6
20260507061551 50 246 1.7 3.5 0.01 0.33 0.33 98 1009.4
20260507061052 50 159 0.0 0.0 0.01 0.33 0.33 99 1009.3
20260507060553 50 159 0.0 0.0 0.01 0.33 0.33 99 1009.2
20260507060057 50 82 0.0 0.0 0.01 0.33 0.33 99 1009.2
20260507055549 49 82 0.0 0.0 0.01 0.33 0.33 99 1009.2
20260507055047 49 82 0.0 0.9 0.01 0.33 0.33 99 1009.0
20260507054546 49 82 0.0 1.7 0.01 0.33 0.33 99 1009.1
20260507054047 48 83 0.0 1.7 0.00 0.32 0.32 98 1009.0
20260507053545 48 42 0.0 0.0 0.00 0.32 0.32 99 1009.0
20260507053046 49 39 0.0 0.0 0.00 0.32 0.32 99 1009.0
20260507052546 48 39 0.0 0.0 0.00 0.32 0.32 99 1009.0
20260507052043 48 39 0.0 0.0 0.00 0.32 0.32 99 1008.9
20260507051543 48 39 0.0 0.0 0.00 0.32 0.32 99 1008.9
20260507051041 48 38 0.0 0.0 0.00 0.32 0.32 99 1008.8
20260507050539 48 38 0.0 0.0 0.00 0.32 0.32 99 1008.6
20260507050042 48 38 0.0 0.0 0.00 0.32 0.32 99 1008.7
20260507045540 48 38 0.0 0.0 0.01 0.32 0.32 99 1008.6
20260507045037 48 39 0.0 0.0 0.01 0.32 0.32 99 1008.6
20260507044537 48 39 0.0 0.0 0.01 0.32 0.32 99 1008.7
20260507044035 47 39 0.0 0.0 0.01 0.32 0.32 99 1008.7
20260507043533 47 39 0.0 0.0 0.02 0.32 0.32 99 1008.5
20260507043035 47 39 0.0 0.0 0.02 0.32 0.32 99 1008.5
20260507042531 47 39 0.0 0.0 0.03 0.32 0.32 99 1008.4
20260507042029 47 355 0.0 0.0 0.04 0.32 0.32 98 1008.4
20260507041529 47 355 0.0 1.7 0.06 0.32 0.32 98 1008.3
20260507041029 47 355 0.0 1.7 0.06 0.32 0.32 98 1008.4
20260507040529 47 339 0.0 0.9 0.06 0.32 0.32 98 1008.3
20260507040028 47 313 0.0 1.7 0.05 0.31 0.31 98 1008.3
20260507035528 47 313 0.0 1.7 0.05 0.31 0.31 98 1008.3
20260507035028 47 313 0.0 0.0 0.06 0.31 0.31 99 1008.2
20260507034534 47 313 0.0 1.7 0.06 0.31 0.31 98 1008.3
20260507034027 47 313 0.0 1.7 0.06 0.31 0.31 98 1008.3
20260507033527 47 313 0.0 0.9 0.05 0.31 0.31 98 1008.4
20260507033026 47 313 0.0 1.7 0.05 0.30 0.30 98 1008.2
20260507032525 47 313 0.0 1.7 0.04 0.28 0.28 98 1008.1
20260507032025 47 313 0.0 1.7 0.03 0.28 0.28 98 1008.0
20260507031524 47 313 0.0 1.7 0.03 0.27 0.27 98 1007.9
20260507031025 47 313 0.0 0.9 0.03 0.27 0.27 98 1008.0
20260507030526 47 313 0.0 2.6 0.04 0.27 0.27 98 1007.9
20260507030024 47 313 0.0 2.6 0.05 0.27 0.27 98 1007.9
20260507025523 47 310 0.0 1.7 0.05 0.26 0.26 98 1007.8
20260507025023 47 310 0.0 1.7 0.05 0.26 0.26 98 1007.8
20260507024523 47 309 0.0 1.7 0.05 0.26 0.26 98 1007.8
20260507024022 47 306 0.0 2.6 0.05 0.26 0.26 98 1007.7
20260507023522 47 304 0.9 2.6 0.05 0.26 0.26 98 1007.6
20260507023021 47 5 0.0 2.6 0.04 0.25 0.25 98 1007.5
20260507022520 47 43 0.9 2.6 0.04 0.25 0.25 98 1007.6
20260507022021 47 227 0.0 3.5 0.03 0.24 0.24 98 1007.6
20260507021518 48 44 0.9 3.5 0.02 0.24 0.24 98 1007.6
20260507021018 48 10 0.9 2.6 0.02 0.23 0.23 98 1007.7
20260507020518 48 80 0.9 1.7 0.02 0.23 0.23 98 1007.7
20260507020027 48 291 0.0 1.7 0.01 0.22 0.22 98 1007.9
20260507015516 48 291 0.0 3.5 0.00 0.21 0.21 98 1007.8
20260507015016 48 91 0.0 3.5 0.00 0.21 0.21 97 1007.6
20260507014515 48 72 0.9 3.5 0.00 0.21 0.21 97 1007.6
20260507014015 48 355 0.9 4.3 0.00 0.21 0.21 98 1007.6
20260507013513 48 345 1.7 8.7 0.00 0.21 0.21 97 1007.5
20260507013018 48 76 0.9 8.7 0.01 0.21 0.21 97 1007.5
20260507012511 49 272 0.9 6.1 0.02 0.21 0.21 97 1007.5
20260507012010 49 42 0.0 7.0 0.03 0.21 0.21 97 1007.5
20260507011512 49 82 0.9 6.1 0.04 0.21 0.21 97 1007.5
20260507011008 50 76 0.0 5.2 0.06 0.21 0.21 98 1007.5
20260507010507 50 64 1.7 5.2 0.06 0.21 0.21 98 1007.4
20260507010007 50 107 0.0 2.6 0.08 0.21 0.21 98 1007.3
20260507005506 51 267 0.0 0.0 0.09 0.22 0.21 98 1007.5
20260507005006 50 267 0.0 0.0 0.10 0.22 0.21 98 1007.4
20260507004506 51 267 0.0 0.0 0.11 0.22 0.21 98 1007.3
20260507004005 51 267 0.0 1.7 0.12 0.22 0.21 98 1007.2
20260507003508 51 267 0.0 1.7 0.13 0.22 0.21 98 1007.2
20260507003006 51 267 0.0 1.7 0.13 0.21 0.20 98 1007.2
20260507002504 51 266 0.0 1.7 0.13 0.20 0.19 98 1007.3
20260507002003 51 266 0.0 1.7 0.13 0.19 0.18 98 1007.2
20260507001512 51 263 0.0 0.0 0.12 0.17 0.17 98 1007.1
20260507001003 51 263 0.0 1.7 0.11 0.17 0.16 97 1007.1
20260507000504 51 261 0.0 1.7 0.11 0.16 0.15 98 1006.9
20260507000002 51 229 0.0 0.0 0.10 0.14 0.13 98 1007.1
20260506235501 51 229 0.0 0.0 0.09 0.18 0.12 98 1007.1
20260506235100 51 229 0.0 0.0 0.08 0.17 0.11 98 1007.3
20260506234603 51 229 0.0 3.5 0.08 0.17 0.10 98 1007.2
20260506234100 52 229 0.0 3.5 0.08 0.16 0.09 98 1007.3
20260506233602 52 248 0.0 2.6 0.06 0.14 0.08 97 1007.2
20260506233101 52 248 0.0 2.6 0.06 0.13 0.07 97 1007.1
20260506232557 52 247 0.9 2.6 0.05 0.12 0.06 97 1007.1
20260506232058 52 178 0.0 2.6 0.04 0.11 0.05 97 1007.1
20260506231606 52 71 0.0 1.7 0.05 0.11 0.05 97 1007.0
20260506231057 52 63 0.0 2.6 0.05 0.11 0.05 97 1006.9
20260506230557 52 63 0.9 2.6 0.04 0.10 0.04 97 1006.8
20260506230112 52 94 0.9 4.3 0.03 0.09 0.03 97 1006.8
20260506225557 52 44 0.9 5.2 0.03 0.25 0.03 97 1006.7
20260506225055 52 325 1.7 8.7 0.02 0.24 0.02 96 1006.7
20260506224556 52 100 2.6 8.7 0.02 0.24 0.02 96 1006.7
20260506224055 52 69 1.7 5.2 0.02 0.24 0.02 96 1006.7
20260506223558 52 38 0.9 7.0 0.02 0.24 0.02 96 1006.7
20260506223054 52 58 2.6 7.8 0.02 0.24 0.02 96 1006.7
20260506222552 52 91 1.7 7.8 0.01 0.23 0.01 96 1006.7
20260506222054 52 65 1.7 5.2 0.01 0.23 0.01 96 1006.8
20260506221605 52 94 0.9 5.2 0.00 0.22 0.00 96 1006.8
20260506221050 52 101 1.7 9.6 0.00 0.22 0.00 96 1006.7
20260506220549 52 95 2.6 7.8 0.00 0.22 0.00 96 1006.8
20260506220049 52 87 1.7 7.8 0.00 0.22 0.00 96 1006.8
20260506215548 52 81 1.7 7.0 0.00 0.27 0.22 96 1006.7
20260506215051 53 104 3.5 7.0 0.00 0.27 0.22 96 1006.7
20260506214553 53 88 0.9 5.2 0.00 0.27 0.22 96 1006.7
20260506214046 53 96 1.7 8.7 0.00 0.27 0.22 95 1006.7
20260506213547 53 67 2.6 7.8 0.00 0.27 0.22 95 1006.7
20260506213047 53 68 1.7 6.1 0.00 0.27 0.22 95 1006.6
20260506212546 53 155 1.7 6.1 0.00 0.27 0.22 95 1006.6
20260506212046 53 87 1.7 6.1 0.00 0.27 0.22 95 1006.5
20260506211546 53 53 1.7 5.2 0.00 0.27 0.22 95 1006.5
20260506211048 53 44 1.7 7.0 0.00 0.27 0.22 95 1006.4